[[{"header":{"parameterUnit":"m.s-1","parameterCategory":2,"la1":30.2991,"la2":30.254,"lo1":-89.0895,"lo2":-89.0444,"dx":0.0017,"dy":0.0017,"nx":28,"ny":28,"refTime":"2022-11-13T15:00:00:Z","depth":"0","parameterNumber":2,"parameterNumberName":"U-component_of_CURRENTS"},"data":[0,0,0,0,0,0,0,0,0,0,0,0,0,0,0,0,0,0,0,0,0,0,0,0,0,0,0,0,0,0,0,0,0,0,0,0,0,0,0,0,0,0,0,0,0,0,0,0,0,0,0,0,0,0,0,0,0,0,-0.2872,-0.2872,0,-0.289,-0.289,-0.289,-0.2858,-0.2858,-0.2857,-0.2856,-0.2785,-0.2784,-0.2782,0,0,0,0,0,0,0,0,0,0,0,0,0,-0.2793,-0.2795,-0.2872,-0.2872,-0.2873,-0.289,-0.289,-0.289,-0.2859,-0.2858,-0.2857,-0.2856,-0.2785,-0.2784,-0.2782,0,0,0,0,0,0,0,0,0,0,0,0,0,-0.2818,-0.2795,-0.2872,-0.2862,-0.2861,-0.289,-0.289,-0.289,-0.2859,-0.2858,-0.2856,-0.2855,-0.2786,-0.2784,-0.2782,-0.2795,0,0,-0.2777,-0.2776,0,0,0,0,0,0,0,0,-0.2817,-0.2821,-0.2863,-0.2862,-0.2862,-0.2874,-0.2837,-0.2855,-0.2859,-0.2856,-0.2856,-0.2855,-0.2809,-0.2805,-0.2808,-0.2791,-0.2788,-0.2777,-0.2775,-0.2775,-0.2774,0,0,0,0,0,0,0,-0.2815,-0.282,-0.2876,-0.2863,-0.2863,-0.2851,-0.2853,-0.284,-0.2835,-0.2856,-0.2855,-0.2863,-0.2808,-0.281,-0.2806,-0.2787,-0.2777,-0.2775,-0.2774,-0.2773,-0.2783,-0.2784,0,0,0,0,0,0,-0.2822,-0.2818,-0.2875,-0.2877,-0.284,-0.2854,-0.2856,-0.2869,-0.2837,-0.2833,-0.2864,-0.2861,-0.2814,-0.2808,-0.2803,-0.2825,-0.2775,-0.2773,-0.2772,-0.2781,-0.2783,-0.2784,0,0,0,0,0,0,-0.282,-0.2827,-0.2875,-0.285,-0.2855,-0.2857,-0.2871,-0.287,-0.2867,-0.2844,-0.2837,-0.2862,-0.2812,-0.2806,-0.28,-0.2822,-0.2772,-0.2771,-0.278,-0.2782,-0.2784,-0.2863,0,0,0,0,0,0,-0.2818,-0.2826,-0.2831,-0.2851,-0.2857,-0.2898,-0.2872,-0.2871,-0.2876,-0.2872,-0.2841,-0.2833,-0.2811,-0.2803,-0.2798,-0.2818,-0.2769,-0.2778,-0.2781,-0.2783,-0.2859,-0.2868,-0.2875,0,0,0,0,0,-0.2815,-0.2829,-0.2831,-0.2838,-0.2866,-0.2899,-0.2902,-0.2895,-0.2877,-0.2886,-0.2866,-0.2834,-0.2815,-0.2803,-0.2797,-0.2817,-0.2777,-0.278,-0.2783,-0.2855,-0.2866,-0.2875,0,0,0,0,0,0,-0.2789,-0.2828,-0.2831,-0.2852,-0.2878,-0.2895,-0.2899,-0.2899,-0.2892,-0.2881,-0.285,-0.2843,-0.2848,-0.2823,-0.281,-0.2828,-0.2791,-0.2793,-0.2849,-0.2858,-0.2866,-0.2867,-0.2768,0,0,0,0,0,-0.2791,-0.281,-0.2846,-0.2861,-0.2876,-0.2888,-0.2896,-0.29,-0.2902,-0.2897,-0.2879,-0.2861,-0.2859,-0.2849,-0.2841,-0.2847,-0.2809,-0.2857,-0.2865,-0.2872,-0.287,-0.2847,-0.2853,-0.2794,-0.2794,-0.2794,0,0,-0.278,-0.2806,-0.2813,-0.2857,-0.287,-0.2908,-0.2889,-0.2911,-0.2936,-0.289,-0.2903,-0.2888,-0.2868,-0.2881,-0.2881,-0.286,-0.2868,-0.2876,-0.2882,-0.2876,-0.2851,-0.2856,-0.2861,-0.2796,-0.2796,-0.2795,0,0,-0.2784,-0.2799,-0.2823,-0.2856,-0.2894,-0.2912,-0.2921,-0.2947,-0.295,-0.2969,-0.2947,-0.2944,-0.2934,-0.2931,-0.2926,-0.2971,-0.2914,-0.297,-0.3007,-0.2986,-0.2991,-0.2994,-0.2946,-0.2945,-0.2971,-0.2971,-0.2971,0,-0.2769,-0.2811,-0.2833,-0.2877,-0.2905,-0.2918,-0.2958,-0.2975,-0.2994,-0.2998,-0.298,-0.2976,-0.2959,-0.2978,-0.3,-0.2989,-0.2957,-0.2973,-0.2996,-0.2999,-0.3001,-0.2951,-0.2948,-0.2975,-0.2975,-0.2974,-0.2974,0,-0.2801,-0.284,-0.2858,-0.292,-0.2954,-0.2988,-0.303,-0.305,-0.305,-0.3061,-0.3073,-0.3055,-0.3047,-0.3052,-0.3041,-0.3057,-0.3023,-0.3012,-0.297,-0.3011,-0.2956,-0.2952,-0.2981,-0.298,-0.2978,-0.2977,0,0,-0.2748,-0.286,-0.2863,-0.2902,-0.2981,-0.3006,-0.3063,-0.3108,-0.3125,-0.3136,-0.3145,-0.3159,-0.3135,-0.3129,-0.3113,-0.3101,-0.3092,-0.3069,-0.3065,-0.3018,-0.3024,-0.2948,-0.2935,-0.3086,-0.3086,-0.3086,-0.2977,0,-0.2762,-0.2847,-0.2904,-0.2973,-0.3019,-0.3069,-0.312,-0.3161,-0.3175,-0.3185,-0.3176,-0.3177,-0.317,-0.3159,-0.3153,-0.3106,-0.3085,-0.3121,-0.2994,-0.2989,-0.2914,-0.293,-0.2825,-0.2715,-0.2972,-0.2971,-0.2971,0,-0.2764,-0.2828,-0.2905,-0.3006,-0.3029,-0.3071,-0.3133,-0.3178,-0.3215,-0.3225,-0.323,-0.3216,-0.321,-0.3188,-0.3131,-0.3153,-0.3098,-0.3057,-0.3052,-0.2948,-0.2905,-0.2717,-0.2696,-0.2697,-0.2963,-0.2964,-0.2965,0,-0.2698,-0.2816,-0.2873,-0.2911,-0.3033,-0.3064,-0.3112,-0.3173,-0.3203,-0.3231,-0.3237,-0.3236,-0.321,-0.3167,-0.3097,-0.3112,-0.3008,-0.3012,-0.2887,-0.288,-0.2747,-0.2728,-0.2707,-0.2962,-0.2963,-0.2963,-0.2963,0,-0.2687,-0.2725,-0.2843,-0.2875,-0.2929,-0.3021,-0.3066,-0.3117,-0.3175,-0.3191,-0.3233,-0.3224,-0.3205,-0.315,-0.3091,-0.2964,-0.2999,-0.2886,-0.285,-0.2771,-0.2756,-0.2715,-0.274,-0.2959,-0.296,-0.2961,-0.2961,0,-0.2603,-0.269,-0.2749,-0.2868,-0.29,-0.2924,-0.3032,-0.3064,-0.3134,-0.3148,-0.3156,-0.3196,-0.3127,-0.3083,-0.299,-0.2935,-0.2783,-0.278,-0.2677,-0.2631,-0.2524,-0.2557,-0.2462,-0.2393,-0.2625,-0.2623,-0.2621,0,-0.2567,-0.2593,-0.2703,-0.2728,-0.2778,-0.2843,-0.2893,-0.301,-0.3049,-0.3114,-0.3107,-0.3078,-0.3016,-0.2867,-0.2774,-0.2641,-0.2656,-0.2483,-0.2502,-0.2497,-0.2509,-0.2537,-0.2488,-0.235,-0.2345,-0.2342,-0.2339,0,-0.2477,-0.251,-0.2559,-0.2614,-0.2664,-0.2725,-0.2801,-0.283,-0.295,-0.297,-0.295,-0.2901,-0.2802,-0.2639,-0.2512,-0.2419,-0.2437,-0.2409,-0.2432,-0.2313,-0.2312,-0.2233,-0.2438,-0.2309,-0.2312,-0.2314,-0.2316,-0.2317,-0.2372,-0.2376,-0.2427,-0.2465,-0.2523,-0.2547,-0.2538,-0.2628,-0.2642,-0.2612,-0.2706,-0.2582,-0.2542,-0.2344,-0.2275,-0.2148,-0.2196,-0.2087,-0.2129,-0.216,-0.2094,-0.2225,-0.2049,-0.205,-0.2051,-0.2052,-0.2053,0,-0.2229,-0.2244,-0.2273,-0.2304,-0.2292,-0.2378,-0.2427,-0.2369,-0.2313,-0.2333,-0.2281,-0.221,-0.2101,-0.2085,-0.2001,-0.1912,-0.1879,-0.1868,-0.19,-0.1863,-0.1985,-0.1976,-0.1742,-0.1742,-0.1742,-0.1742,-0.1742,-0.1742,-0.2147,-0.2112,-0.2131,-0.2044,-0.2063,-0.1979,-0.196,-0.1887,-0.1857,-0.1718,-0.1686,-0.1678,-0.1776,-0.1987,-0.1922,-0.1834,-0.1811,-0.1739,-0.1777,-0.1905,-0.193,-0.1955,-0.1953,-0.1718,-0.1718,-0.1586,-0.1585,-0.1585]},{"header":{"parameterUnit":"m.s-1","parameterCategory":2,"la1":30.2991,"la2":30.254,"lo1":-89.0895,"lo2":-89.0444,"dx":0.0017,"dy":0.0017,"nx":28,"ny":28,"refTime":"2022-11-13T15:00:00:Z","depth":"0","parameterNumber":3,"parameterNumberName":"V-component_of_CURRENTS"},"data":[0,0,0,0,0,0,0,0,0,0,0,0,0,0,0,0,0,0,0,0,0,0,0,0,0,0,0,0,0,0,0,0,0,0,0,0,0,0,0,0,0,0,0,0,0,0,0,0,0,0,0,0,0,0,0,0,0,0,-0.0209,-0.0208,0,-0.0091,-0.0089,-0.0088,-0.0014,-0.0014,-0.0013,-0.0013,0.014,0.0144,0.0147,0,0,0,0,0,0,0,0,0,0,0,0,0,-0.0303,-0.0302,-0.021,-0.0208,-0.0207,-0.0091,-0.0089,-0.0087,-0.0014,-0.0014,-0.0013,-0.0013,0.0139,0.0143,0.0148,0,0,0,0,0,0,0,0,0,0,0,0,0,-0.023,-0.0302,-0.021,-0.0157,-0.0152,-0.0091,-0.0089,-0.0087,-0.0014,-0.0014,-0.0013,-0.0013,0.0137,0.0143,0.0148,0.0176,0,0,0.0166,0.0168,0,0,0,0,0,0,0,0,-0.0234,-0.0226,-0.0166,-0.0161,-0.0154,-0.0068,-0.0066,0.0002,-0.0014,-0.0065,-0.0013,-0.0013,0.0072,0.0083,0.0107,0.0184,0.019,0.0166,0.017,0.0172,0.0174,0,0,0,0,0,0,0,-0.0239,-0.0231,-0.0161,-0.0165,-0.0158,-0.0116,-0.0106,-0.0052,0.0002,-0.006,-0.0055,-0.0044,0.0076,0.0101,0.0111,0.0192,0.0166,0.0171,0.0175,0.0177,0.0322,0.0322,0,0,0,0,0,0,-0.0261,-0.0236,-0.0165,-0.0157,-0.0196,-0.0115,-0.0103,-0.0095,0.0001,0.0015,-0.0045,-0.0041,0.0091,0.0104,0.0116,0.0164,0.0172,0.0178,0.0181,0.0322,0.0322,0.0322,0,0,0,0,0,0,-0.0264,-0.0256,-0.0169,-0.0195,-0.0181,-0.0115,-0.0105,-0.0093,-0.0069,0.0012,0.0027,-0.0035,0.0092,0.0108,0.0165,0.017,0.018,0.0186,0.0321,0.0322,0.0322,0.0254,0,0,0,0,0,0,-0.0267,-0.0258,-0.0262,-0.0197,-0.0181,-0.0144,-0.0105,-0.0091,-0.0064,-0.0058,0.0026,0.0041,0.0093,0.0156,0.0171,0.0178,0.019,0.0321,0.0321,0.0322,0.0255,0.0252,0.0249,0,0,0,0,0,-0.0271,-0.0281,-0.0263,-0.0254,-0.0187,-0.0145,-0.0133,-0.0083,-0.0064,-0.0059,0.0003,0.0038,0.0171,0.0161,0.0178,0.0187,0.032,0.0321,0.0322,0.0257,0.0253,0.0249,0,0,0,0,0,0,-0.0324,-0.0273,-0.0251,-0.0245,-0.0204,-0.0134,-0.0127,-0.0091,-0.0037,-0.0033,0.0045,0.0064,0.0113,0.016,0.0147,0.0232,0.0251,0.0255,0.0196,0.0192,0.0189,0.0172,0.0195,0,0,0,0,0,-0.0339,-0.0334,-0.0275,-0.0272,-0.0256,-0.0193,-0.0171,-0.0136,-0.008,-0.0057,0.0005,0.0071,0.0131,0.0167,0.0222,0.027,0.0321,0.0288,0.0284,0.0281,0.0279,0.0364,0.0367,0.0325,0.0325,0.0325,0,0,-0.036,-0.0332,-0.0328,-0.0283,-0.0248,-0.0229,-0.0178,-0.0153,-0.0129,-0.0049,-0.0002,0.0057,0.0139,0.0193,0.022,0.0233,0.0319,0.0282,0.0279,0.0279,0.0365,0.0369,0.0373,0.0326,0.0326,0.0326,0,0,-0.0404,-0.0374,-0.0386,-0.0354,-0.0309,-0.0265,-0.0263,-0.0196,-0.0159,-0.0109,-0.0043,0.0021,0.0106,0.0175,0.0219,0.0232,0.0293,0.0245,0.0223,0.0304,0.0308,0.0312,0.0373,0.0383,0.025,0.025,0.025,0,-0.0434,-0.0434,-0.0383,-0.0381,-0.0359,-0.0287,-0.0288,-0.0238,-0.0159,-0.0123,-0.0108,0.0039,0.0102,0.019,0.0193,0.0225,0.0271,0.0228,0.0299,0.0304,0.031,0.0372,0.0384,0.0247,0.0247,0.0247,0.0248,0,-0.048,-0.0477,-0.0482,-0.0452,-0.042,-0.0412,-0.0337,-0.0299,-0.0249,-0.0187,-0.0101,-0.0007,0.0082,0.0113,0.0157,0.0232,0.0251,0.0277,0.0304,0.031,0.0374,0.0388,0.0242,0.0243,0.0244,0.0245,0,0,-0.0554,-0.0524,-0.0524,-0.0523,-0.0458,-0.044,-0.0394,-0.0326,-0.0289,-0.0205,-0.0145,-0.0036,0.002,0.0073,0.0146,0.022,0.0295,0.0256,0.0262,0.0306,0.0461,0.0508,0.0529,0.0332,0.0334,0.0336,0.0486,0,-0.0608,-0.0636,-0.0588,-0.0596,-0.0602,-0.0514,-0.0475,-0.0398,-0.0317,-0.024,-0.0122,-0.0043,0.0005,0.0049,0.013,0.0259,0.0329,0.0251,0.0457,0.0463,0.0498,0.0546,0.0612,0.0755,0.05,0.0503,0.0504,0,-0.0668,-0.0676,-0.0706,-0.0669,-0.066,-0.0644,-0.0561,-0.0515,-0.0379,-0.0312,-0.0204,-0.0107,0.0023,0.0054,0.0271,0.0216,0.0323,0.042,0.0429,0.0508,0.0538,0.0713,0.0791,0.0969,0.0526,0.0524,0.0523,0,-0.0758,-0.0754,-0.0783,-0.0772,-0.0718,-0.0702,-0.0664,-0.0545,-0.049,-0.0354,-0.0296,-0.0132,-0.0035,0.0116,0.0315,0.0294,0.0552,0.0554,0.0699,0.0703,0.0819,0.0829,0.1089,0.0699,0.0698,0.0698,0.0698,0,-0.0835,-0.0854,-0.0833,-0.0849,-0.0866,-0.0791,-0.0767,-0.0696,-0.0573,-0.0492,-0.035,-0.0236,-0.0013,0.0167,0.0316,0.0562,0.056,0.071,0.0757,0.0795,0.0802,0.1009,0.1053,0.0704,0.0702,0.0701,0.07,0,-0.0924,-0.0913,-0.0948,-0.0922,-0.0914,-0.0929,-0.0854,-0.0821,-0.0699,-0.0587,-0.0543,-0.0297,-0.0047,0.0174,0.0458,0.0581,0.0913,0.0876,0.0896,0.0943,0.1219,0.1254,0.1514,0.1624,0.1055,0.1058,0.106,0,-0.0972,-0.1003,-0.1021,-0.105,-0.1043,-0.1041,-0.1025,-0.0907,-0.0843,-0.0602,-0.0544,-0.0275,-0.0037,0.0381,0.0663,0.095,0.1049,0.114,0.1116,0.1266,0.1341,0.1343,0.1417,0.1242,0.1245,0.1248,0.125,0,-0.1056,-0.1064,-0.1096,-0.1161,-0.1175,-0.117,-0.1126,-0.1092,-0.0911,-0.0759,-0.0493,-0.0279,0.0163,0.0572,0.0925,0.1081,0.1274,0.1202,0.138,0.1532,0.1534,0.1651,0.1088,0.1274,0.1272,0.127,0.1269,0.1268,-0.111,-0.1165,-0.1209,-0.1262,-0.1282,-0.1272,-0.1243,-0.1122,-0.0977,-0.0675,-0.0482,-0.0058,0.0485,0.103,0.1214,0.1601,0.1507,0.169,0.1726,0.1719,0.182,0.129,0.1509,0.1508,0.1507,0.1507,0.1506,0,-0.1172,-0.1226,-0.1297,-0.1348,-0.1373,-0.1353,-0.1273,-0.1154,-0.0935,-0.0605,-0.0287,0.0425,0.0951,0.1416,0.1937,0.2122,0.2156,0.2192,0.2237,0.2293,0.1872,0.1876,0.2159,0.2159,0.2159,0.2159,0.2159,0.2158,-0.1207,-0.1295,-0.1333,-0.1399,-0.1424,-0.1387,-0.1329,-0.1069,-0.0784,-0.0207,0.0274,0.0609,0.1255,0.2083,0.2572,0.2597,0.2763,0.2713,0.2802,0.2531,0.2487,0.2445,0.2465,0.2867,0.2868,0.3233,0.3237,0.324]}],[{"header":{"parameterUnit":"m.s-1","parameterCategory":2,"la1":30.2991,"la2":30.254,"lo1":-89.0895,"lo2":-89.0444,"dx":0.0017,"dy":0.0017,"nx":28,"ny":28,"refTime":"2022-11-13T15:00:00:Z","depth":"2","parameterNumber":2,"parameterNumberName":"U-component_of_CURRENTS"},"data":[0,0,0,0,0,0,0,0,0,0,0,0,0,0,0,0,0,0,0,0,0,0,0,0,0,0,0,0,0,0,0,0,0,0,0,0,0,0,0,0,0,0,0,0,0,0,0,0,0,0,0,0,0,0,0,0,0,0,-0.2742,-0.2743,0,-0.2763,-0.2763,-0.2763,-0.2736,-0.2736,-0.2735,-0.2735,-0.2672,-0.2671,-0.267,0,0,0,0,0,0,0,0,0,0,0,0,0,-0.2664,-0.2665,-0.2742,-0.2743,-0.2743,-0.2763,-0.2763,-0.2763,-0.2737,-0.2736,-0.2735,-0.2734,-0.2672,-0.2671,-0.267,0,0,0,0,0,0,0,0,0,0,0,0,0,-0.269,-0.2666,-0.2742,-0.2735,-0.2735,-0.2763,-0.2763,-0.2763,-0.2737,-0.2736,-0.2735,-0.2734,-0.2672,-0.2671,-0.2669,-0.2679,0,0,-0.2665,-0.2664,0,0,0,0,0,0,0,0,-0.2688,-0.2692,-0.2736,-0.2736,-0.2735,-0.2749,-0.2712,-0.2732,-0.2737,-0.2733,-0.2735,-0.2733,-0.2693,-0.2689,-0.2692,-0.2677,-0.2674,-0.2664,-0.2663,-0.2663,-0.2662,0,0,0,0,0,0,0,-0.2686,-0.2691,-0.2747,-0.2736,-0.2736,-0.2726,-0.2728,-0.2716,-0.2714,-0.2733,-0.2732,-0.274,-0.2691,-0.2694,-0.269,-0.2673,-0.2664,-0.2663,-0.2662,-0.2661,-0.2674,-0.2675,0,0,0,0,0,0,-0.2693,-0.269,-0.2746,-0.2748,-0.2713,-0.2728,-0.273,-0.2743,-0.2716,-0.2712,-0.2741,-0.2738,-0.2697,-0.2692,-0.2688,-0.2713,-0.2663,-0.2661,-0.266,-0.2673,-0.2674,-0.2675,0,0,0,0,0,0,-0.2691,-0.2698,-0.2746,-0.2721,-0.2727,-0.2731,-0.2745,-0.2744,-0.2745,-0.2723,-0.2717,-0.2742,-0.2696,-0.269,-0.2687,-0.271,-0.2661,-0.2659,-0.2671,-0.2673,-0.2675,-0.2754,0,0,0,0,0,0,-0.2689,-0.2697,-0.2703,-0.2722,-0.2729,-0.277,-0.2746,-0.2745,-0.2753,-0.275,-0.2723,-0.2716,-0.2695,-0.269,-0.2686,-0.2706,-0.2658,-0.2669,-0.2672,-0.2674,-0.2749,-0.2758,-0.2765,0,0,0,0,0,-0.2686,-0.27,-0.2703,-0.271,-0.2739,-0.2771,-0.2773,-0.277,-0.2754,-0.2764,-0.2747,-0.2717,-0.2702,-0.269,-0.2685,-0.2705,-0.2668,-0.2671,-0.2674,-0.2746,-0.2756,-0.2765,0,0,0,0,0,0,-0.2663,-0.27,-0.2703,-0.2726,-0.2751,-0.2768,-0.2774,-0.2774,-0.277,-0.2761,-0.2732,-0.2726,-0.2734,-0.271,-0.2697,-0.2717,-0.2681,-0.2683,-0.2737,-0.2747,-0.2754,-0.2755,-0.2657,0,0,0,0,0,-0.2665,-0.2684,-0.2719,-0.2734,-0.275,-0.2762,-0.2772,-0.2777,-0.278,-0.2777,-0.2761,-0.2745,-0.2744,-0.2736,-0.2728,-0.2737,-0.27,-0.2747,-0.2755,-0.2762,-0.276,-0.2739,-0.2744,-0.2685,-0.2685,-0.2685,0,0,-0.2656,-0.2681,-0.2689,-0.2731,-0.2745,-0.2781,-0.2764,-0.2788,-0.2812,-0.277,-0.2785,-0.2772,-0.2753,-0.2768,-0.2768,-0.2748,-0.2759,-0.2765,-0.2772,-0.2765,-0.2742,-0.2748,-0.2753,-0.2687,-0.2687,-0.2686,0,0,-0.2661,-0.2677,-0.2701,-0.2733,-0.2771,-0.2787,-0.2798,-0.2824,-0.2828,-0.2849,-0.2829,-0.2828,-0.2821,-0.2817,-0.2813,-0.2858,-0.2804,-0.2858,-0.2895,-0.2875,-0.288,-0.2883,-0.2838,-0.2837,-0.2859,-0.2859,-0.2859,0,-0.2649,-0.269,-0.2711,-0.2753,-0.278,-0.2795,-0.2833,-0.2851,-0.2871,-0.2877,-0.2861,-0.2861,-0.2845,-0.2864,-0.2885,-0.2875,-0.2846,-0.2861,-0.2885,-0.2888,-0.289,-0.2843,-0.284,-0.2863,-0.2863,-0.2862,-0.2862,0,-0.2681,-0.2719,-0.2737,-0.2796,-0.2828,-0.2862,-0.2902,-0.2923,-0.2927,-0.2938,-0.2953,-0.2937,-0.2931,-0.2937,-0.2926,-0.2944,-0.2911,-0.29,-0.286,-0.29,-0.2848,-0.2844,-0.2869,-0.2868,-0.2866,-0.2865,0,0,-0.2634,-0.2739,-0.2743,-0.278,-0.2855,-0.2879,-0.2934,-0.2979,-0.2996,-0.3011,-0.3021,-0.3037,-0.3017,-0.3011,-0.2997,-0.2987,-0.298,-0.2957,-0.2954,-0.2909,-0.2918,-0.2842,-0.2829,-0.2975,-0.2975,-0.2975,-0.2873,0,-0.2648,-0.2728,-0.2782,-0.2848,-0.289,-0.2939,-0.2989,-0.3029,-0.3045,-0.3058,-0.3051,-0.3055,-0.305,-0.3042,-0.3038,-0.2993,-0.2975,-0.3008,-0.2887,-0.2883,-0.2808,-0.2824,-0.2615,-0.2502,-0.2868,-0.2868,-0.2867,0,-0.2651,-0.271,-0.2783,-0.2878,-0.29,-0.2942,-0.3002,-0.3046,-0.3084,-0.3097,-0.3105,-0.3094,-0.3091,-0.3071,-0.3019,-0.304,-0.2988,-0.295,-0.2944,-0.2841,-0.2799,-0.2521,-0.248,-0.286,-0.286,-0.2861,-0.2861,0,-0.2588,-0.2699,-0.2753,-0.2789,-0.2904,-0.2935,-0.2982,-0.3043,-0.3073,-0.3104,-0.3113,-0.3115,-0.3094,-0.3054,-0.2988,-0.3003,-0.2905,-0.2908,-0.2786,-0.2779,-0.2559,-0.2532,-0.2862,-0.2862,-0.2862,-0.2863,-0.2863,0,-0.2577,-0.2613,-0.2725,-0.2755,-0.2807,-0.2895,-0.2941,-0.2991,-0.3049,-0.3067,-0.3111,-0.3105,-0.3091,-0.3039,-0.2983,-0.2862,-0.2897,-0.2785,-0.275,-0.258,-0.2558,-0.2839,-0.2837,-0.2859,-0.286,-0.286,-0.2861,0,-0.2497,-0.258,-0.2635,-0.2749,-0.278,-0.2804,-0.2909,-0.294,-0.3011,-0.3028,-0.3038,-0.3081,-0.3017,-0.2976,-0.2889,-0.2834,-0.2738,-0.2685,-0.2477,-0.2421,-0.2625,-0.2629,-0.254,-0.2536,-0.2533,-0.2531,-0.2529,0,-0.2463,-0.2487,-0.2591,-0.2615,-0.2664,-0.2727,-0.2775,-0.289,-0.2927,-0.2996,-0.2989,-0.2968,-0.2907,-0.2765,-0.2656,-0.2522,-0.2624,-0.2284,-0.2286,-0.2618,-0.2594,-0.2603,-0.2611,-0.2014,-0.2008,-0.2003,-0.1999,0,-0.2376,-0.2409,-0.2454,-0.2505,-0.2554,-0.2609,-0.2683,-0.2711,-0.2829,-0.2847,-0.2832,-0.2785,-0.2678,-0.2453,-0.2322,-0.2224,-0.2296,-0.218,-0.2552,-0.2149,-0.2119,-0.2097,-0.2122,-0.1954,-0.1958,-0.1962,-0.1964,-0.1966,-0.2277,-0.2278,-0.2326,-0.236,-0.2415,-0.2434,-0.2422,-0.25,-0.2509,-0.246,-0.2565,-0.2395,-0.2379,-0.2035,-0.1934,-0.1846,-0.1999,-0.1914,-0.193,-0.1951,-0.193,-0.1899,-0.1685,-0.1688,-0.1691,-0.1693,-0.1695,0,-0.2133,-0.215,-0.2175,-0.2201,-0.218,-0.227,-0.2312,-0.2229,-0.2159,-0.2147,-0.2077,-0.1796,-0.1672,-0.1654,-0.1453,-0.1443,-0.1432,-0.1391,-0.1379,-0.1422,-0.1461,-0.1417,-0.1035,-0.1034,-0.1032,-0.1031,0,0,-0.2051,-0.2011,-0.2026,-0.1933,-0.1954,-0.1852,-0.183,-0.1713,-0.1646,-0.1453,-0.1358,-0.146,-0.1536,-0.1255,-0.1228,-0.1096,-0.1236,-0.1032,-0.1551,-0.1572,-0.1609,-0.1744,-0.1723,0,0,0,0,0]},{"header":{"parameterUnit":"m.s-1","parameterCategory":2,"la1":30.2991,"la2":30.254,"lo1":-89.0895,"lo2":-89.0444,"dx":0.0017,"dy":0.0017,"nx":28,"ny":28,"refTime":"2022-11-13T15:00:00:Z","depth":"2","parameterNumber":3,"parameterNumberName":"V-component_of_CURRENTS"},"data":[0,0,0,0,0,0,0,0,0,0,0,0,0,0,0,0,0,0,0,0,0,0,0,0,0,0,0,0,0,0,0,0,0,0,0,0,0,0,0,0,0,0,0,0,0,0,0,0,0,0,0,0,0,0,0,0,0,0,-0.0271,-0.027,0,-0.0157,-0.0155,-0.0154,-0.0083,-0.0082,-0.0082,-0.0082,0.0066,0.007,0.0073,0,0,0,0,0,0,0,0,0,0,0,0,0,-0.0364,-0.0363,-0.0272,-0.027,-0.0269,-0.0157,-0.0155,-0.0153,-0.0083,-0.0082,-0.0082,-0.0082,0.0065,0.0069,0.0074,0,0,0,0,0,0,0,0,0,0,0,0,0,-0.0292,-0.0362,-0.0272,-0.0221,-0.0216,-0.0157,-0.0155,-0.0153,-0.0083,-0.0082,-0.0082,-0.0082,0.0063,0.0069,0.0074,0.0101,0,0,0.0091,0.0094,0,0,0,0,0,0,0,0,-0.0297,-0.0289,-0.023,-0.0225,-0.0218,-0.0135,-0.0133,-0.0067,-0.0083,-0.0132,-0.0082,-0.0081,0.0001,0.0011,0.0034,0.0108,0.0115,0.0092,0.0095,0.0098,0.0099,0,0,0,0,0,0,0,-0.0302,-0.0293,-0.0225,-0.0229,-0.0222,-0.0182,-0.0172,-0.012,-0.0067,-0.0127,-0.0122,-0.0112,0.0004,0.0028,0.0038,0.0117,0.0092,0.0097,0.01,0.0102,0.0243,0.0244,0,0,0,0,0,0,-0.0323,-0.0298,-0.0228,-0.0221,-0.0259,-0.0181,-0.0169,-0.0161,-0.0068,-0.0054,-0.0112,-0.0109,0.0019,0.0031,0.0043,0.009,0.0097,0.0103,0.0106,0.0243,0.0243,0.0244,0,0,0,0,0,0,-0.0325,-0.0318,-0.0233,-0.0258,-0.0245,-0.018,-0.0171,-0.0159,-0.0135,-0.0058,-0.0043,-0.0102,0.0019,0.0036,0.0091,0.0096,0.0105,0.011,0.0242,0.0243,0.0244,0.0178,0,0,0,0,0,0,-0.0328,-0.0319,-0.0322,-0.026,-0.0244,-0.0208,-0.0171,-0.0157,-0.013,-0.0125,-0.0043,-0.0029,0.0021,0.0082,0.0096,0.0104,0.0115,0.0242,0.0243,0.0243,0.0179,0.0176,0.0173,0,0,0,0,0,-0.0332,-0.0341,-0.0323,-0.0315,-0.025,-0.0209,-0.0197,-0.0148,-0.013,-0.0125,-0.0065,-0.0032,0.0097,0.0087,0.0104,0.0113,0.0241,0.0242,0.0243,0.0181,0.0176,0.0173,0,0,0,0,0,0,-0.0383,-0.0333,-0.0312,-0.0306,-0.0265,-0.0198,-0.019,-0.0156,-0.0104,-0.0099,-0.0025,-0.0006,0.0042,0.0087,0.0074,0.0156,0.0174,0.0179,0.0121,0.0118,0.0115,0.0097,0.0119,0,0,0,0,0,-0.0397,-0.0391,-0.0334,-0.0331,-0.0315,-0.0254,-0.0232,-0.0199,-0.0145,-0.0122,-0.0063,0.0002,0.0059,0.0094,0.0147,0.0194,0.0243,0.0211,0.0208,0.0205,0.0202,0.0284,0.0287,0.0247,0.0247,0.0247,0,0,-0.0417,-0.0389,-0.0385,-0.0341,-0.0307,-0.0289,-0.024,-0.0215,-0.0192,-0.0114,-0.0069,-0.0012,0.0067,0.0119,0.0145,0.0158,0.0242,0.0206,0.0203,0.0202,0.0285,0.0289,0.0293,0.0247,0.0247,0.0247,0,0,-0.0459,-0.0429,-0.0439,-0.0408,-0.0364,-0.0322,-0.032,-0.0255,-0.022,-0.0171,-0.0108,-0.0045,0.0037,0.0103,0.0145,0.0158,0.0216,0.0171,0.0149,0.0228,0.0232,0.0236,0.0296,0.0306,0.0176,0.0176,0.0176,0,-0.0487,-0.0487,-0.0436,-0.0433,-0.0413,-0.0343,-0.0344,-0.0296,-0.022,-0.0185,-0.017,-0.0029,0.0032,0.0116,0.0119,0.0151,0.0197,0.0154,0.0223,0.0228,0.0233,0.0294,0.0306,0.0173,0.0173,0.0173,0.0174,0,-0.053,-0.0527,-0.0531,-0.0502,-0.0472,-0.0463,-0.0391,-0.0355,-0.0306,-0.0247,-0.0165,-0.0073,0.0012,0.0043,0.0085,0.0157,0.0176,0.0202,0.0227,0.0233,0.0297,0.031,0.0168,0.0169,0.017,0.0171,0,0,-0.06,-0.0571,-0.0571,-0.0572,-0.0509,-0.0491,-0.0447,-0.0383,-0.0348,-0.0267,-0.021,-0.0104,-0.005,0.0002,0.0072,0.0144,0.0218,0.018,0.0186,0.0229,0.038,0.0423,0.0442,0.0254,0.0256,0.0258,0.0406,0,-0.0651,-0.0678,-0.0633,-0.0642,-0.0649,-0.0564,-0.0527,-0.0454,-0.0376,-0.0302,-0.0189,-0.0112,-0.0065,-0.0022,0.0056,0.0182,0.0251,0.0174,0.0377,0.0382,0.0413,0.0459,0.0372,0.0499,0.0419,0.0422,0.0423,0,-0.0709,-0.0718,-0.0747,-0.0715,-0.0707,-0.0692,-0.0615,-0.0571,-0.0439,-0.0375,-0.0271,-0.0176,-0.0051,-0.0019,0.0192,0.0139,0.0245,0.0339,0.0348,0.0421,0.0451,0.0484,0.0527,0.0447,0.0445,0.0443,0.0442,0,-0.0796,-0.0794,-0.0824,-0.0814,-0.0764,-0.075,-0.0714,-0.06,-0.0549,-0.0417,-0.0362,-0.0202,-0.0108,0.004,0.0235,0.0215,0.0466,0.0469,0.0608,0.0612,0.0595,0.0594,0.0611,0.061,0.061,0.061,0.0609,0,-0.0872,-0.0892,-0.0873,-0.0889,-0.091,-0.0837,-0.0816,-0.0748,-0.0631,-0.0555,-0.0415,-0.0308,-0.0088,0.0088,0.0236,0.0474,0.0474,0.0618,0.0664,0.057,0.0565,0.0563,0.0556,0.0615,0.0614,0.0613,0.0612,0,-0.0959,-0.0949,-0.0986,-0.0963,-0.0956,-0.0973,-0.0903,-0.0873,-0.0756,-0.065,-0.0608,-0.0369,-0.0126,0.0093,0.0371,0.0492,0.07,0.0779,0.0647,0.0676,0.0785,0.0772,0.0945,0.0948,0.095,0.0953,0.0954,0,-0.1007,-0.1038,-0.1058,-0.1088,-0.1083,-0.1083,-0.107,-0.0957,-0.0898,-0.0669,-0.0615,-0.0352,-0.0127,0.0282,0.0529,0.0804,0.08,0.0874,0.0829,0.0797,0.0825,0.0808,0.0792,0.0775,0.0775,0.0775,0.0775,0,-0.109,-0.1099,-0.1131,-0.1198,-0.1215,-0.1214,-0.1175,-0.1146,-0.0973,-0.0832,-0.0579,-0.0377,0.0028,0.0341,0.0678,0.0812,0.082,0.0888,0.0916,0.0704,0.065,0.0672,0.066,0.0777,0.0776,0.0776,0.0776,0.0776,-0.1144,-0.1199,-0.1245,-0.13,-0.1322,-0.1319,-0.1296,-0.1192,-0.106,-0.0806,-0.0603,-0.0264,0.0026,0.052,0.0736,0.091,0.0923,0.0933,0.0927,0.0922,0.0877,0.083,0.0981,0.0982,0.0983,0.0984,0.0985,0,-0.1207,-0.1261,-0.1333,-0.1389,-0.1419,-0.1399,-0.133,-0.1247,-0.106,-0.0808,-0.0528,-0.0188,0.0172,0.0467,0.0754,0.0943,0.0889,0.0944,0.0824,0.0822,0.082,0.0764,0.0842,0.0843,0.0843,0.0844,0,0,-0.1242,-0.1331,-0.1369,-0.1444,-0.1473,-0.1454,-0.1404,-0.1223,-0.1018,-0.0751,-0.049,-0.0175,0.0199,0.037,0.0579,0.0724,0.0715,0.0717,0.0804,0.063,0.0626,0.0782,0.0691,0,0,0,0,0]}],[{"header":{"parameterUnit":"m.s-1","parameterCategory":2,"la1":30.2991,"la2":30.254,"lo1":-89.0895,"lo2":-89.0444,"dx":0.0017,"dy":0.0017,"nx":28,"ny":28,"refTime":"2022-11-13T15:00:00:Z","depth":"4","parameterNumber":2,"parameterNumberName":"U-component_of_CURRENTS"},"data":[0,0,0,0,0,0,0,0,0,0,0,0,0,0,0,0,0,0,0,0,0,0,0,0,0,0,0,0,0,0,0,0,0,0,0,0,0,0,0,0,0,0,0,0,0,0,0,0,0,0,0,0,0,0,0,0,0,0,-0.1851,-0.1852,0,-0.1919,-0.1919,-0.192,-0.196,-0.1961,-0.1961,-0.1961,-0.1996,-0.1996,-0.1997,0,0,0,0,0,0,0,0,0,0,0,0,0,-0.1746,-0.1747,-0.1851,-0.1852,-0.1853,-0.1919,-0.1919,-0.192,-0.196,-0.1961,-0.1961,-0.1962,-0.1996,-0.1996,-0.1997,0,0,0,0,0,0,0,0,0,0,0,0,0,-0.1798,-0.1748,-0.1851,-0.1883,-0.1887,-0.1918,-0.1919,-0.192,-0.196,-0.1961,-0.1961,-0.1962,-0.1995,-0.1996,-0.1997,-0.1989,0,0,-0.1999,-0.2,0,0,0,0,0,0,0,0,-0.1795,-0.1801,-0.1877,-0.1881,-0.1885,-0.1934,-0.1895,-0.1943,-0.196,-0.193,-0.1961,-0.1962,-0.1973,-0.1976,-0.1984,-0.1991,-0.1993,-0.1999,-0.2,-0.2,-0.2,0,0,0,0,0,0,0,-0.1791,-0.1799,-0.1875,-0.1878,-0.1883,-0.189,-0.1898,-0.1904,-0.1944,-0.1932,-0.1936,-0.1947,-0.1975,-0.1983,-0.1985,-0.1993,-0.1999,-0.2,-0.2001,-0.2001,-0.2082,-0.2083,0,0,0,0,0,0,-0.1788,-0.1795,-0.1873,-0.1878,-0.1843,-0.1892,-0.1901,-0.1916,-0.1945,-0.1951,-0.1947,-0.1949,-0.1982,-0.1984,-0.1986,-0.2064,-0.2,-0.2001,-0.2001,-0.208,-0.2082,-0.2084,0,0,0,0,0,0,-0.1785,-0.1794,-0.1871,-0.184,-0.185,-0.1893,-0.191,-0.1917,-0.1957,-0.1957,-0.1962,-0.1984,-0.1982,-0.1985,-0.2026,-0.2062,-0.2001,-0.2002,-0.2078,-0.2081,-0.2083,-0.2164,0,0,0,0,0,0,-0.1782,-0.1793,-0.1817,-0.184,-0.1852,-0.1913,-0.191,-0.1918,-0.1962,-0.1967,-0.199,-0.1992,-0.1983,-0.2025,-0.2027,-0.2062,-0.2003,-0.2076,-0.2079,-0.2082,-0.2159,-0.2169,-0.2177,0,0,0,0,0,-0.1778,-0.1804,-0.1818,-0.1829,-0.1879,-0.1914,-0.1922,-0.1952,-0.1964,-0.1989,-0.2009,-0.1993,-0.2046,-0.2027,-0.2029,-0.2065,-0.2074,-0.2078,-0.2082,-0.2155,-0.2167,-0.2177,0,0,0,0,0,0,-0.177,-0.1811,-0.1827,-0.1865,-0.19,-0.1923,-0.1953,-0.1971,-0.2007,-0.2019,-0.2015,-0.2019,-0.2067,-0.2055,-0.2035,-0.2098,-0.2057,-0.2061,-0.2112,-0.2123,-0.2132,-0.2126,-0.2003,0,0,0,0,0,-0.178,-0.1813,-0.1847,-0.1881,-0.1902,-0.1934,-0.1958,-0.198,-0.2008,-0.2026,-0.2044,-0.2061,-0.2078,-0.2094,-0.2105,-0.2139,-0.2106,-0.2164,-0.2173,-0.218,-0.2177,-0.2164,-0.2171,-0.2096,-0.2096,-0.2096,0,0,-0.1786,-0.1814,-0.1834,-0.1883,-0.1912,-0.1951,-0.195,-0.1999,-0.2037,-0.2022,-0.2086,-0.2096,-0.2095,-0.2137,-0.2157,-0.2136,-0.2185,-0.2185,-0.2192,-0.2184,-0.2169,-0.2176,-0.2182,-0.2099,-0.2098,-0.2098,0,0,-0.1806,-0.1843,-0.1875,-0.1909,-0.1963,-0.1984,-0.2006,-0.2051,-0.2083,-0.2137,-0.2137,-0.2168,-0.2202,-0.2207,-0.2211,-0.2275,-0.2233,-0.2288,-0.2331,-0.2319,-0.2324,-0.2329,-0.2293,-0.2294,-0.2293,-0.2293,-0.2293,0,-0.1815,-0.1858,-0.189,-0.1931,-0.1965,-0.2003,-0.2045,-0.2081,-0.2137,-0.2161,-0.217,-0.2224,-0.223,-0.2265,-0.2295,-0.2294,-0.2274,-0.229,-0.2329,-0.2333,-0.2336,-0.2298,-0.2298,-0.2297,-0.2297,-0.2296,-0.2296,0,-0.1847,-0.1897,-0.1921,-0.1984,-0.2026,-0.207,-0.212,-0.217,-0.2211,-0.2237,-0.2296,-0.2308,-0.2334,-0.235,-0.2346,-0.2381,-0.2354,-0.2341,-0.2299,-0.2348,-0.2306,-0.2304,-0.2304,-0.2302,-0.2301,-0.23,0,0,-0.182,-0.1924,-0.1934,-0.1974,-0.206,-0.2089,-0.2165,-0.2226,-0.2266,-0.2325,-0.2363,-0.2412,-0.2419,-0.2424,-0.2426,-0.2426,-0.2438,-0.2406,-0.2403,-0.2364,-0.2399,-0.2248,-0.223,-0.2437,-0.2438,-0.2438,-0.2359,0,-0.1836,-0.1911,-0.1966,-0.2044,-0.2084,-0.2152,-0.2215,-0.2278,-0.2326,-0.2373,-0.2398,-0.2437,-0.2447,-0.2466,-0.2473,-0.2445,-0.2438,-0.2459,-0.2361,-0.2358,-0.2212,-0.2224,-0.2439,-0.2357,-0.2357,-0.2356,-0.2356,0,-0.1834,-0.189,-0.1968,-0.2071,-0.2096,-0.2156,-0.2247,-0.2305,-0.2378,-0.2418,-0.2463,-0.2478,-0.2505,-0.2498,-0.2477,-0.2494,-0.2458,-0.2429,-0.2425,-0.225,-0.2202,-0.2298,-0.2352,-0.2352,-0.2352,-0.2353,-0.2353,0,-0.1767,-0.1882,-0.1944,-0.1981,-0.2106,-0.2162,-0.2228,-0.2317,-0.2362,-0.2439,-0.2467,-0.2505,-0.2518,-0.2495,-0.2456,-0.2473,-0.2401,-0.2406,-0.223,-0.2218,-0.2343,-0.2339,-0.2377,-0.2377,-0.2377,-0.2377,-0.2378,0,-0.1735,-0.1788,-0.1925,-0.1957,-0.2032,-0.2133,-0.2211,-0.2281,-0.2369,-0.2396,-0.248,-0.2483,-0.2522,-0.249,-0.2451,-0.2318,-0.2394,-0.2223,-0.2185,-0.238,-0.2381,-0.2341,-0.2338,-0.2374,-0.2375,-0.2376,-0.2376,0,-0.1642,-0.1739,-0.1813,-0.1956,-0.2002,-0.205,-0.2192,-0.2233,-0.234,-0.2372,-0.2397,-0.2468,-0.2421,-0.2416,-0.236,-0.2285,-0.2188,-0.2123,-0.2314,-0.229,-0.2016,-0.2018,-0.1913,-0.1907,-0.1902,-0.1897,-0.1894,0,-0.1598,-0.1629,-0.1779,-0.182,-0.1891,-0.1989,-0.2048,-0.2193,-0.2228,-0.2327,-0.2312,-0.2326,-0.2343,-0.2125,-0.2159,-0.2051,-0.2032,-0.1979,-0.2018,-0.1993,-0.1967,-0.1978,-0.1987,-0.1886,-0.1884,-0.1883,-0.1882,0,-0.1499,-0.1566,-0.1622,-0.1702,-0.1779,-0.1849,-0.1942,-0.1951,-0.2085,-0.2219,-0.2152,-0.211,-0.2049,-0.1998,-0.1928,-0.1861,-0.2014,-0.1925,-0.1936,-0.1972,-0.1959,-0.1941,-0.1956,-0.1864,-0.1866,-0.1868,-0.1869,0,-0.1412,-0.1423,-0.1496,-0.1546,-0.1634,-0.1645,-0.1732,-0.1765,-0.1818,-0.1949,-0.1918,-0.1931,-0.2012,-0.1896,-0.1827,-0.1751,-0.1732,-0.1686,-0.1709,-0.1729,-0.1708,-0.1667,-0.1432,0,0,0,0,0,-0.1309,-0.1294,-0.133,-0.1369,-0.1448,-0.1486,-0.1621,-0.1715,-0.1859,-0.1756,-0.1831,-0.1764,-0.1676,-0.1698,-0.1573,-0.1737,-0.1733,-0.1589,-0.1692,-0.1765,-0.1785,-0.1779,0,0,0,0,0,0,-0.1237,-0.1259,-0.1263,-0.1193,-0.1181,-0.1241,-0.1311,-0.1422,-0.139,-0.1546,-0.1503,-0.1639,-0.1575,-0.1684,-0.152,-0.1527,-0.1554,-0.1629,-0.1624,-0.1753,-0.1772,-0.1788,-0.1789,0,0,0,0,0]},{"header":{"parameterUnit":"m.s-1","parameterCategory":2,"la1":30.2991,"la2":30.254,"lo1":-89.0895,"lo2":-89.0444,"dx":0.0017,"dy":0.0017,"nx":28,"ny":28,"refTime":"2022-11-13T15:00:00:Z","depth":"4","parameterNumber":3,"parameterNumberName":"V-component_of_CURRENTS"},"data":[0,0,0,0,0,0,0,0,0,0,0,0,0,0,0,0,0,0,0,0,0,0,0,0,0,0,0,0,0,0,0,0,0,0,0,0,0,0,0,0,0,0,0,0,0,0,0,0,0,0,0,0,0,0,0,0,0,0,-0.0268,-0.0267,0,-0.0193,-0.0192,-0.0192,-0.0149,-0.0149,-0.0149,-0.0149,-0.0044,-0.0041,-0.0038,0,0,0,0,0,0,0,0,0,0,0,0,0,-0.0325,-0.0325,-0.0268,-0.0267,-0.0266,-0.0194,-0.0192,-0.0191,-0.0149,-0.0149,-0.0149,-0.0149,-0.0045,-0.0041,-0.0038,0,0,0,0,0,0,0,0,0,0,0,0,0,-0.028,-0.0324,-0.0268,-0.0237,-0.0234,-0.0194,-0.0192,-0.0191,-0.0149,-0.0149,-0.0149,-0.0149,-0.0046,-0.0042,-0.0038,-0.0014,0,0,-0.0025,-0.0023,0,0,0,0,0,0,0,0,-0.0282,-0.0277,-0.0242,-0.0239,-0.0235,-0.0181,-0.0174,-0.0131,-0.0149,-0.018,-0.0149,-0.0149,-0.0088,-0.008,-0.0065,-0.0009,-0.0004,-0.0025,-0.0022,-0.002,-0.0019,0,0,0,0,0,0,0,-0.0286,-0.028,-0.0237,-0.0242,-0.0237,-0.0211,-0.0205,-0.0166,-0.0134,-0.0177,-0.0174,-0.0168,-0.0085,-0.0069,-0.0062,-0.0003,-0.0025,-0.0021,-0.0018,-0.0017,0.0096,0.0096,0,0,0,0,0,0,-0.03,-0.0283,-0.0239,-0.0235,-0.026,-0.021,-0.0203,-0.0198,-0.0135,-0.0125,-0.0168,-0.0166,-0.0076,-0.0067,-0.0058,-0.0024,-0.002,-0.0016,-0.0014,0.0095,0.0096,0.0097,0,0,0,0,0,0,-0.0301,-0.0296,-0.0242,-0.0258,-0.025,-0.021,-0.0204,-0.0196,-0.0183,-0.0128,-0.0118,-0.0163,-0.0076,-0.0064,-0.0022,-0.0019,-0.0015,-0.0011,0.0095,0.0096,0.0096,0.0044,0,0,0,0,0,0,-0.0303,-0.0297,-0.0302,-0.0259,-0.0249,-0.0226,-0.0204,-0.0195,-0.0179,-0.0176,-0.012,-0.011,-0.0075,-0.0029,-0.0018,-0.0014,-0.0008,0.0094,0.0095,0.0096,0.0045,0.0043,0.0041,0,0,0,0,0,-0.0305,-0.0311,-0.0303,-0.0298,-0.0256,-0.0227,-0.0219,-0.0189,-0.0179,-0.0176,-0.0134,-0.0112,-0.0015,-0.0025,-0.0013,-0.0007,0.0094,0.0095,0.0096,0.0046,0.0043,0.0041,0,0,0,0,0,0,-0.0339,-0.0306,-0.0296,-0.0292,-0.0266,-0.022,-0.0217,-0.0194,-0.0159,-0.0157,-0.0105,-0.0091,-0.0056,-0.0021,-0.0034,0.003,0.0043,0.0047,0.0001,-0.0001,-0.0003,-0.0019,-0.0004,0,0,0,0,0,-0.035,-0.0347,-0.0309,-0.0309,-0.0298,-0.0259,-0.0245,-0.0225,-0.0186,-0.0171,-0.013,-0.0083,-0.004,-0.0014,0.0025,0.0061,0.0098,0.0074,0.0072,0.007,0.0067,0.0129,0.0132,0.0101,0.0101,0.01,0,0,-0.0365,-0.0346,-0.0346,-0.0316,-0.0295,-0.0284,-0.0251,-0.0234,-0.0222,-0.0165,-0.0136,-0.0092,-0.0033,0.0005,0.0025,0.0035,0.0099,0.0072,0.0069,0.0067,0.013,0.0133,0.0136,0.0101,0.0101,0.0101,0,0,-0.0392,-0.0376,-0.0383,-0.0363,-0.0335,-0.0308,-0.0307,-0.0263,-0.0241,-0.0207,-0.0162,-0.0115,-0.0054,-0.0006,0.0026,0.0039,0.0081,0.005,0.0033,0.0093,0.0096,0.0099,0.0145,0.0153,0.0054,0.0054,0.0054,0,-0.0414,-0.0416,-0.0381,-0.0379,-0.037,-0.0324,-0.0328,-0.0295,-0.0242,-0.0221,-0.0208,-0.0105,-0.0058,0.0003,0.0008,0.0033,0.0069,0.0033,0.0089,0.0093,0.0097,0.0144,0.0153,0.0052,0.0052,0.0052,0.0053,0,-0.044,-0.0445,-0.0447,-0.0432,-0.0413,-0.0411,-0.0363,-0.0342,-0.031,-0.027,-0.0212,-0.014,-0.0078,-0.0052,-0.0018,0.0037,0.0052,0.0072,0.0089,0.0096,0.0146,0.0156,0.0048,0.0049,0.005,0.0051,0,0,-0.0483,-0.0472,-0.0475,-0.0484,-0.0444,-0.0435,-0.041,-0.0371,-0.0354,-0.0292,-0.0257,-0.0173,-0.0131,-0.0092,-0.0035,0.0023,0.0082,0.0055,0.0059,0.009,0.0206,0.0176,0.0184,0.011,0.0112,0.0113,0.0228,0,-0.052,-0.0546,-0.0518,-0.0539,-0.0548,-0.0497,-0.0478,-0.0432,-0.038,-0.0332,-0.0244,-0.019,-0.0146,-0.0114,-0.0049,0.0051,0.0107,0.0048,0.0204,0.0209,0.0173,0.0195,0.0118,0.0235,0.0238,0.024,0.0241,0,-0.0555,-0.057,-0.0604,-0.0601,-0.0599,-0.06,-0.0562,-0.0537,-0.0448,-0.0403,-0.0326,-0.0252,-0.0152,-0.012,0.0049,0.0009,0.0097,0.0174,0.0181,0.0177,0.0197,0.0232,0.026,0.0259,0.0257,0.0256,0.0255,0,-0.0612,-0.0628,-0.0664,-0.0663,-0.0647,-0.0652,-0.0638,-0.0566,-0.0539,-0.0446,-0.0408,-0.0282,-0.021,-0.0087,0.0074,0.0064,0.026,0.0268,0.0324,0.0323,0.0339,0.0335,0.0381,0.0381,0.0381,0.038,0.038,0,-0.0658,-0.0688,-0.0703,-0.0723,-0.0763,-0.0721,-0.073,-0.0689,-0.0614,-0.0574,-0.0457,-0.0387,-0.0196,-0.0057,0.0069,0.0229,0.0259,0.0323,0.0353,0.0314,0.0306,0.0346,0.034,0.0385,0.0384,0.0383,0.0382,0,-0.0707,-0.0718,-0.0769,-0.0785,-0.0796,-0.0825,-0.0808,-0.0798,-0.0721,-0.0661,-0.0632,-0.0449,-0.0268,-0.0082,0.0144,0.0222,0.0377,0.0426,0.0368,0.0393,0.0398,0.0388,0.0487,0.0487,0.0487,0.0487,0.0487,0,-0.0733,-0.0765,-0.0829,-0.0871,-0.0888,-0.0919,-0.093,-0.0867,-0.0836,-0.0693,-0.066,-0.0471,-0.0339,-0.0038,0.0145,0.0379,0.0407,0.0471,0.0431,0.039,0.041,0.0401,0.0392,0.0487,0.0487,0.0487,0.0487,0,-0.0779,-0.081,-0.0853,-0.0945,-0.0991,-0.1022,-0.1024,-0.1008,-0.0907,-0.0841,-0.0659,-0.0483,-0.0274,-0.0039,0.0151,0.0315,0.0417,0.0471,0.0472,0.0434,0.0391,0.0409,0.04,0.0487,0.0487,0.0487,0.0487,0,-0.0813,-0.0863,-0.0929,-0.1,-0.1067,-0.1095,-0.1094,-0.1024,-0.0972,-0.0795,-0.0734,-0.0488,-0.0322,-0.0071,0.0102,0.0261,0.0285,0.031,0.0319,0.0322,0.0231,0.0149,0.0199,0,0,0,0,0,-0.0835,-0.0892,-0.0973,-0.105,-0.1114,-0.1138,-0.1133,-0.1105,-0.1009,-0.089,-0.08,-0.0597,-0.0298,-0.0154,-0.0002,0.006,0.0279,0.0237,0.0302,0.0485,0.0486,0.0403,0,0,0,0,0,0,-0.0854,-0.0937,-0.0976,-0.1063,-0.1116,-0.1167,-0.1164,-0.1105,-0.1014,-0.0896,-0.0726,-0.0593,-0.03,-0.0382,-0.0005,0.0046,0.0098,0.0396,0.0398,0.0485,0.0486,0.0486,0.0401,0,0,0,0,0]}]]